Terminal Aerodrome Forecast
Issued by NWS

Current Version | Previous Version | Text Only | Print | Product List | Glossary On
Versions: 1 2 3 4 5 6 7 8 9 10 11 12 13 14 15 16 17 18 19
000
FTUS44 KBMX 301000 AAD
TAFEET
TAF AMD
KEET 301055Z 3011/0106 00000KT 6SM BR OVC015
     FM301500 04003KT P6SM SKC=

USA.gov is the U.S. government's official web portal to all federal, state and local government web resources and services.